User: anonymous   Login
Location: Brno
(49.2000°N, 16.6330°E)
Time: 06:49:44
(UTC+02:00)
Language:

Cosmos 1603 - Orbit

View from above orbital plane
View from above orbital plane
View from above satellite
View from above satellite

Ground track
Ground track

The orbit data is extracted from the following two-line orbital elements,

1 15333U 84106A   17207.89259875 -.00000127 +00000-0 -41678-4 0  9996
2 15333 071.0278 009.2314 0018281 152.3100 207.9000 14.14061737693632
Epoch (UTC): 26 July 2017 21:25:20
Eccentricity: 0.0018281
inclination: 71.0278°
perigee height: 832 km
apogee height: 859 km
right ascension of ascending node: 9.2314°
argument of perigee: 152.3100°
revolutions per day: 14.14061737
mean anomaly at epoch: 207.9000°
orbit number at epoch: 69363

The dashed part of the orbit path shows where the satellite is in the earth's shadow,  

DLR